STARLINK-2756, 48683

Orbit data source: Space-Track

STARLINK-2756, 48683 is a payload satellite owned by SpaceX/Seattle (US) in LEO that was launched on Wed, 26 May 2021 UTC via an FALCON 9 launch vehicle from the Air Force Eastern Test Range (AFETR). Payload-class satellites include a variety of spacecraft equipped with specific instruments for various scientific and technological missions. These include communications satellites like Starlink; space stations such as the ISS; scientific satellites like the Hubble; Earth observation satellites from companies like Planet Labs, Umbra, and HawkEye 360; GPS; miniature CubeSats for education and research; and military/defense satellites.

Loading next visibility...
Identifier
48683, 2021-044AX
Orbit
LEO
Country
Flag of USUS
Related business
Manufacturer
SpaceX/Seattle
Mission
Operational Commercial Communications
Bus & Motor
STARLINK, Unknown motor
Mass
260 kg wet, ~248 kg dry
Launch date (UTC)
2021-05-26 (5 years ago)
Launch vehicle
FALCON 9
Launch site
Air Force Eastern Test Range (AFETR)
Object type
Payload
Rocket body
Debris
Shape & HBR
Box + 1 Pan, 10.1 m
Radar Cross Section
13.562 m², Large (>1 m²)

Expand to show TLE details & history
Last TLE update: 11 hours ago

TLE from 11 hours ago
0 STARLINK-2756
1 48683U 21044AX  25349.68165760  .00000756  00000-0  69622-4 0  9999
2 48683  53.0553  88.7547 0001361  81.1307 278.9836 15.06405427251748
Epoch: 2025-12-15T16:21Z
TLE epoch observation values (Epoch: 2025-12-15T16:21:35.216Z)
Latitude
-0.00003°
Longitude
118.78121°
Altitude
547.927 km
Speed
7.589 km/s
True Right ascension
05h 55m 01s
True Declination
0° 00' 00"
Sunlit
Object was in full shadow at epoch
Visualization orbit readout
Latitude
Unknown
Longitude
Unknown
Altitude
Unknown
Speed
Unknown
Apparent Right ascension
Unknown
Apparent Declination
Unknown
Sunlit
N/A
Visualization observer readout
Local Sidereal Time
02:28:35
Azimuth
Unknown
Elevation
Unknown
Doppler factor
Unknown
Orbital elements
Apogee altitude
548.408 km
Perigee altitude
546.523 km
Semi-major axis
6,925.603 km
Eccentricity
0.00014
Inclination
53.0553°
RAAN
88.7547°
Arg. of periapsis
81.1307°
True anomaly
278.96819°
Mean anomaly
278.9836°
Eccentric anomaly
278.9759°
Mean motion
3.7658 °/min
Orbital period
95.6 mins
BSTAR
0.000069622
Loading maneuver chart data...
Computing Atmospheric mass density...
Loading historical data...
Loading historical data...
Loading historical data...
Loading historical data...
Loading historical data...
Loading historical data...
Loading historical data...

Documentation

Showing up to 5 results
|